Regional Weather Roundup
Issued by NWS

Home | Current Version | Previous Version | Text Only | Print | Product List | Glossary Off
Versions: 1 2 3 4 5 6 7 8 9 10 11 12 13 14 15 16 17 18 19 20 21 22 23 24 25 26 27 28 29 30 31 32 33 34 35 36 37 38 39 40 41 42 43 44 45 46 47 48 49 50

000
ASUS45 KBOU 261607
RWRCO

WEATHER ROUNDUP FOR COLORADO
NATIONAL WEATHER SERVICE DENVER/BOULDER CO
1000 AM MDT TUE MAY 26 2015

NOTE: "FAIR" INDICATES FEW OR NO CLOUDS BELOW 12000 FEET WITH NO
SIGNIFICANT WEATHER AND/OR OBSTRUCTIONS TO VISIBILITY.

COZ001>005-013-030-031-261700-
...NORTHWEST COLORADO...

CITY           SKY/WX    TMP DP  RH WIND       PRES   REMARKS
CRAIG          PTSUNNY   54  44  69 CALM      30.12S
HAYDEN         CLOUDY    54  41  62 E5        30.12F
MEEKER         SUNNY     58  43  57 CALM      30.11F
MOUNT WERNER   NOT AVBL
STEAMBOAT SPGS MOSUNNY   50  42  73 CALM      30.14S
WALDEN         PTSUNNY   50  34  53 S3        30.16S
$$

COZ006>008-011-261700-
...WEST CENTRAL VALLEYS...

CITY           SKY/WX    TMP DP  RH WIND       PRES   REMARKS
GRAND JUNCTION MOSUNNY   61  45  55 SE8       30.07S
MONTROSE       MOSUNNY   59  43  55 N6        30.12F
EAGLE          LGT RAIN  48  46  93 CALM      30.18S
RIFLE          SUNNY     54  45  71 VRB3      30.12F
DELTA          MOSUNNY   62  45  54 MISG      30.11S
NUCLA          MOSUNNY   57  43  58 NW3       30.16F
$$

COZ017>023-064>068-261700-
...SOUTHWEST COLORADO...

CITY           SKY/WX    TMP DP  RH WIND       PRES   REMARKS
DURANGO        SUNNY     55  43  63 VRB5      30.18F
CORTEZ         MOSUNNY   58  43  57 NW3       30.15S
PAGOSA SPRINGS SUNNY     51  38  60 SW3       30.22S
TELLURIDE      PTSUNNY   49  34  56 SW3       30.26S
WOLF CREEK PAS NOT AVBL
$$

COZ009-010-012-014-032>034-037-058>063-261700-
...CENTRAL COLORADO...

CITY           SKY/WX    TMP DP  RH WIND       PRES   REMARKS
ASPEN          PTSUNNY   49  41  74 NW7       30.18R
BUENA VISTA    PTSUNNY   55  32  41 E7        30.17S
COPPER MTN     SNOW      34  30  86 W14G21    30.32R VSB<1/4 WCI  24
BERTHOUD PASS  CLOUDY    27  19  74 NW25G39   30.31F WCI  11
COTTONWOOD PAS CLOUDY    52  30  43 N5        30.24S
GUNNISON       MOSUNNY   48  37  66 NE3       30.22F
KREMMLING      CLOUDY    50  37  62 CALM      30.18S
LEADVILLE      CLOUDY    41  32  70 VRB3      30.23F
SALIDA         MOSUNNY   59  34  38 SE8       30.22F
SUNLIGHT       PTSUNNY   37  37 100 CALM      30.32S FOG
WILKERSON PASS CLOUDY    39  27  60 NW6       30.32S
$$

COZ069>075-261700-
...SAN LUIS VALLEY/SANGRE DE CRISTO MOUNTAINS...

CITY           SKY/WX    TMP DP  RH WIND       PRES   REMARKS
ALAMOSA        SUNNY     53  34  48 CALM      30.19S
LA VETA PASS   MOSUNNY  N/A N/A N/A MISG      30.27S
SAGUACHE       PTSUNNY   52  34  50 CALM      30.20S
$$

COZ035-036-038>040-261700-
...NORTHERN COLORADO FRONT RANGE...

CITY           SKY/WX    TMP DP  RH WIND       PRES   REMARKS
DENVER INTL AP PTSUNNY   59  44  57 S5        30.06F
DMNS CITY PARK   N/A     61  43  51 SE7       30.05F
AURORA         NOT AVBL
FRONT RANGE AP PTSUNNY   63  46  55 CALM      30.08S
ERIE MUNI ARPT   N/A     60  47  61 S5        30.05F
BOULDER MUN AP PTSUNNY   57  46  67 E3        30.05F
CENTENNIAL     PTSUNNY   58  44  60 SE7       30.07F
BROOMFIELD     PTSUNNY   57  45  62 SE5       30.07
FORT COLLINS   PTSUNNY   55  46  71 SE3       30.07S
LONGMONT       CLOUDY    64  48  56 SE6       30.06F
$$

COZ041-046-047-076>085-087-088-261700-
...PIKES PEAK/PALMER DIVIDE AND SOUTHERN FOOTHILLS...

CITY           SKY/WX    TMP DP  RH WIND       PRES   REMARKS
COLO. SPRINGS  MOSUNNY   59  40  49 S7        30.11S
A. F. ACADEMY  NOT AVBL
ELLICOTT       NOT AVBL
FALCON         MOSUNNY   57  38  50 SE3       30.14S
FORT CARSON    NOT AVBL
LIMON          CLOUDY    58  45  62 N3        30.09R
MONUMENT HILL  NOT AVBL
TRINIDAD       SUNNY     59  45  59 SE6       30.09F
$$

COZ042>045-048>051-090-091-261700-
...NORTHEAST COLORADO...

CITY           SKY/WX    TMP DP  RH WIND       PRES   REMARKS
GREELEY ARPT   MOSUNNY   63  48  59 CALM      30.05F
AKRON          PTSUNNY   59  49  69 N8        30.05R
BURLINGTON     SUNNY     64  50  60 NW7       30.04S
WRAY           PTSUNNY   63  51  65 NW7       30.02R
STERLING       PTSUNNY   61  50  67 CALM      30.02S
HOLYOKE        NOT AVBL
FORT MORGAN    SUNNY     61  48  63 CALM      30.06S
$$

COZ086-089-092>099-261700-
...SOUTHEAST COLORADO...

CITY           SKY/WX    TMP DP  RH WIND       PRES   REMARKS
PUEBLO         PTSUNNY   61  46  57 VRB5      30.06S
LA JUNTA       SUNNY     64  47  53 VRB3      30.06S
LAMAR          SUNNY     65  48  54 VRB3      30.02F
SPRINGFIELD      N/A     65  47  52 N10       30.05S
$$



USA.gov is the U.S. government's official web portal to all federal, state and local government web resources and services.